Date String (YYYY-MM-DD hh:mm:ss) UTC,Instrument flags,absolute air pressure of the measurement (hPa),sample flow rate (lpm),inlet stack bypass flow (lpm),air temperature of the measurement (°C),ambient temperature measured by the external sensor (°C),aerosol sample conditioner tube jacket temperature (°C),OPC LED temperature (°C),internal box temperature (°C),relative humidity of the measurement (%),span deviation,mass concentration of particles derived from Lorenz-Mie calculation of OPC scattering (μg/m³),mass concentration of particles derived from Lorenz-Mie calculation of OPC scattering (μg/m³),mass concentration of particles derived from Lorenz-Mie calculation of OPC scattering (μg/m³)
DateTimeUTC,F1_M11,P_M11,Q1_M11,Q2_M11,T1_M11,T2_M11,T3_M11,T4_M11,T5_M11,U1_M11,ZSPAN_M11,X0_M11,X2_M11,X1_M11
2024-06-01 00:00:00,SystemResetWarning,0829.0,5.00,000.00,030.3,029.3,000.0,038.8,032.0,026.2,0000.0,0015.32,0006.87,0005.88
2024-06-01 00:01:00,SystemResetWarning,0828.9,4.99,000.00,030.4,029.5,000.0,038.8,032.1,026.0,0000.0,0016.31,0006.79,0005.83
2024-06-01 00:02:00,SystemResetWarning,0828.9,4.99,000.00,030.4,029.6,000.0,038.8,032.2,025.9,0000.0,0016.62,0006.74,0005.80
2024-06-01 00:03:00,SystemResetWarning,0828.9,5.00,000.00,030.5,029.7,000.0,038.8,032.2,026.0,0000.0,0016.45,0006.70,0005.79
2024-06-01 00:04:00,SystemResetWarning,0829.0,5.01,000.00,030.5,029.8,000.0,038.9,032.3,026.0,0000.0,0016.96,0006.71,0005.79
2024-06-01 00:05:00,SystemResetWarning,0829.0,5.00,000.00,030.6,029.9,000.0,038.9,032.3,026.1,0000.0,0016.56,0006.66,0005.79
2024-06-01 00:06:00,SystemResetWarning,0829.0,4.99,000.00,030.6,030.0,000.0,038.9,032.4,026.4,0000.0,0016.27,0006.72,0005.80
2024-06-01 00:07:00,SystemResetWarning,0829.0,5.00,000.00,030.6,030.1,000.0,038.9,032.4,026.7,0000.0,0016.66,0006.76,0005.79
2024-06-01 00:08:00,SystemResetWarning,0829.0,4.99,000.00,030.7,030.1,000.0,039.0,032.5,026.8,0000.0,0016.05,0006.74,0005.79
2024-06-01 00:09:00,SystemResetWarning,0828.9,5.00,000.00,030.7,030.2,000.0,039.0,032.5,026.3,0000.0,0015.35,0006.68,0005.77
2024-06-01 00:10:00,SystemResetWarning,0828.9,5.00,000.00,030.8,030.3,000.0,039.0,032.6,026.0,0000.4,0015.50,0006.68,0005.76
2024-06-01 00:11:00,SystemResetWarning,0829.0,5.00,000.00,030.8,030.3,000.0,039.1,032.6,025.8,0000.2,0015.61,0006.73,0005.77
2024-06-01 00:12:00,SystemResetWarning,0829.0,5.00,000.00,030.9,030.4,000.0,039.1,032.6,025.5,0002.5,0014.90,0006.75,0005.77
2024-06-01 00:13:00,SystemResetWarning,0829.0,5.00,000.00,030.9,030.4,000.0,039.1,032.7,025.3,0002.8,0014.47,0006.75,0005.77
2024-06-01 00:14:00,SystemResetWarning,0829.1,5.00,000.00,030.9,030.4,000.0,039.1,032.7,025.4,0000.5,0014.50,0006.77,0005.78
2024-06-01 00:15:00,SystemResetWarning,0829.2,5.00,000.00,031.0,030.5,000.0,039.2,032.8,025.3,0001.5,0014.29,0006.76,0005.77
2024-06-01 00:16:00,SystemResetWarning,0829.1,4.99,000.00,031.0,029.9,000.0,039.2,032.4,025.2,0000.0,0014.45,0006.78,0005.76
2024-06-01 00:17:00,SystemResetWarning,0829.1,5.01,000.00,030.6,027.7,000.0,039.3,031.3,025.9,0000.0,0014.35,0006.75,0005.75
2024-06-01 00:18:00,SystemResetWarning,0829.1,5.02,000.00,030.2,027.0,000.0,039.2,030.9,026.1,0000.0,0014.22,0006.73,0005.78
2024-06-01 00:19:00,SystemResetWarning,0829.1,4.99,000.00,030.1,027.4,000.0,039.1,031.0,026.5,0000.0,0014.23,0006.76,0005.84
2024-06-01 00:20:00,SystemResetWarning,0829.1,5.00,000.00,030.1,027.8,000.0,039.0,031.3,026.6,0000.0,0014.47,0006.84,0005.87
2024-06-01 00:21:00,SystemResetWarning,0829.1,5.01,000.00,030.1,028.2,000.0,038.9,031.5,026.2,0000.0,0015.15,0006.90,0005.90
2024-06-01 00:22:00,SystemResetWarning,0829.2,4.99,000.00,030.1,028.5,000.0,038.8,031.7,026.2,0000.0,0015.02,0006.94,0005.95
2024-06-01 00:23:00,SystemResetWarning,0829.4,5.00,000.00,030.2,028.8,000.0,038.8,031.8,025.9,0000.9,0014.83,0006.93,0005.98
2024-06-01 00:24:00,SystemResetWarning,0829.4,5.00,000.00,030.2,029.1,000.0,038.8,031.9,026.8,0001.6,0014.64,0006.93,0005.99
2024-06-01 00:25:00,SystemResetWarning,0829.6,5.01,000.00,030.3,029.2,000.0,038.8,032.0,026.6,0001.4,0014.84,0006.97,0005.97
2024-06-01 00:26:00,SystemResetWarning,0829.7,5.00,000.00,030.3,029.4,000.0,038.8,032.1,026.8,0001.4,0015.19,0006.93,0005.96
2024-06-01 00:27:00,SystemResetWarning,0829.7,5.00,000.00,030.4,029.5,000.0,038.8,032.1,026.7,0000.8,0014.65,0006.89,0005.94
2024-06-01 00:28:00,SystemResetWarning,0829.5,5.00,000.00,030.4,029.6,000.0,038.8,032.2,026.6,0000.8,0014.68,0006.89,0005.92
2024-06-01 00:29:00,SystemResetWarning,0829.4,5.00,000.00,030.4,029.7,000.0,038.8,032.2,026.6,0000.8,0014.22,0006.90,0005.92
2024-06-01 00:30:00,SystemResetWarning,0829.3,5.00,000.00,030.5,029.8,000.0,038.8,032.3,026.5,0000.9,0014.77,0006.92,0005.89
2024-06-01 00:31:00,SystemResetWarning,0829.5,4.99,000.00,030.5,029.9,000.0,038.8,032.3,026.3,0001.3,0015.10,0006.90,0005.88
2024-06-01 00:32:00,SystemResetWarning,0829.5,5.01,000.00,030.6,030.0,000.0,038.9,032.4,026.3,0001.2,0014.90,0006.88,0005.87
2024-06-01 00:33:00,SystemResetWarning,0829.6,5.01,000.00,030.6,030.0,000.0,038.9,032.4,026.1,0000.6,0014.87,0006.87,0005.84
2024-06-01 00:34:00,SystemResetWarning,0829.6,5.00,000.00,030.7,030.1,000.0,038.9,032.5,025.9,0000.2,0014.98,0006.93,0005.83
2024-06-01 00:35:00,SystemResetWarning,0829.5,5.00,000.00,030.7,030.1,000.0,038.9,032.5,025.9,0000.0,0015.12,0007.00,0005.83
2024-06-01 00:36:00,SystemResetWarning,0829.5,5.00,000.00,030.7,030.2,000.0,039.0,032.5,026.4,0000.0,0015.46,0007.03,0005.86
2024-06-01 00:37:00,SystemResetWarning,0829.4,5.00,000.00,030.8,030.2,000.0,039.0,032.6,026.5,0000.5,0015.38,0007.09,0005.87
2024-06-01 00:38:00,SystemResetWarning,0829.4,4.99,000.00,030.8,030.3,000.0,039.0,032.6,026.1,0000.2,0015.24,0007.07,0005.86
2024-06-01 00:39:00,SystemResetWarning,0829.4,5.00,000.00,030.8,030.3,000.0,039.1,032.6,026.2,0001.7,0015.10,0007.02,0005.86
2024-06-01 00:40:00,SystemResetWarning,0829.4,5.01,000.00,030.9,030.3,000.0,039.1,032.6,026.1,0002.0,0014.88,0006.98,0005.85
2024-06-01 00:41:00,SystemResetWarning,0829.4,4.99,000.00,030.7,028.6,000.0,039.2,031.7,026.1,0002.3,0014.29,0006.94,0005.83
2024-06-01 00:42:00,SystemResetWarning,0829.4,5.01,000.00,030.3,026.9,000.0,039.1,030.9,027.1,0000.9,0013.88,0006.92,0005.83
2024-06-01 00:43:00,SystemResetWarning,0829.4,5.02,000.00,030.0,026.9,000.0,039.1,030.7,026.9,0001.6,0013.13,0006.93,0005.84
2024-06-01 00:44:00,SystemResetWarning,0829.4,4.99,000.00,029.9,027.3,000.0,038.9,031.0,027.9,0002.7,0013.62,0006.95,0005.89
2024-06-01 00:45:00,SystemResetWarning,0829.3,4.99,000.00,030.0,027.7,000.0,038.8,031.3,027.9,0002.5,0013.66,0006.92,0005.89
2024-06-01 00:46:00,SystemResetWarning,0829.3,5.00,000.00,030.0,028.1,000.0,038.7,031.4,027.9,0002.6,0014.16,0006.88,0005.87
2024-06-01 00:47:00,SystemResetWarning,0829.4,5.01,000.00,030.0,028.4,000.0,038.7,031.6,027.4,0001.7,0015.00,0006.85,0005.86
2024-06-01 00:48:00,SystemResetWarning,0829.3,5.00,000.00,030.0,028.7,000.0,038.7,031.7,027.4,0001.7,0014.89,0006.86,0005.88
2024-06-01 00:49:00,SystemResetWarning,0829.4,5.00,000.00,030.1,028.9,000.0,038.7,031.8,027.2,0002.0,0015.06,0006.92,0005.91
2024-06-01 00:50:00,SystemResetWarning,0829.4,5.00,000.00,030.1,029.1,000.0,038.6,031.8,027.4,0002.3,0016.17,0006.94,0005.92
2024-06-01 00:51:00,SystemResetWarning,0829.4,5.00,000.00,030.1,029.2,000.0,038.6,031.9,027.0,0001.7,0018.99,0007.02,0005.94
2024-06-01 00:52:00,SystemResetWarning,0829.5,5.00,000.00,030.2,029.4,000.0,038.6,032.0,026.4,0001.5,0019.73,0007.02,0005.95
2024-06-01 00:53:00,SystemResetWarning,0829.4,5.01,000.00,030.2,029.5,000.0,038.7,032.0,026.4,0001.6,0019.73,0007.01,0005.95
2024-06-01 00:54:00,SystemResetWarning,0829.4,5.00,000.00,030.3,029.6,000.0,038.7,032.1,026.5,0001.5,0019.65,0006.99,0005.95
2024-06-01 00:55:00,SystemResetWarning,0829.4,5.00,000.00,030.3,029.7,000.0,038.7,032.1,026.5,0000.1,0019.16,0006.90,0005.88
2024-06-01 00:56:00,SystemResetWarning,0829.3,4.99,000.00,030.4,029.7,000.0,038.7,032.2,026.3,0000.0,0019.01,0006.89,0005.89
2024-06-01 00:57:00,SystemResetWarning,0829.3,4.99,000.00,030.4,029.8,000.0,038.7,032.2,026.3,0000.0,0018.99,0006.90,0005.90
2024-06-01 00:58:00,SystemResetWarning,0829.3,5.00,000.00,030.4,029.9,000.0,038.7,032.3,026.4,0000.0,0017.85,0006.91,0005.91
2024-06-01 00:59:00,SystemResetWarning,0829.4,4.99,000.00,030.5,029.9,000.0,038.8,032.3,026.6,0000.0,0017.41,0006.87,0005.90
